London-Corbin, KY

2:39 AM EDT on August 25, 2019 (GMT -0400)
London-Corbin / McKee

Weather History for KLOZ - June, 2019

Change the Weather History Date:

Friday, June 14, 2019

  Actual Average Record
Temperature  
Mean Temperature 61 °F 73 °F  
Max Temperature 75 °F 83 °F 92 °F (2016)
Min Temperature 46 °F 62 °F 44 °F (1985)
Degree Days  
Heating Degree Days 4 0  
Month to date heating degree days 10 7  
Since 1 June heating degree days 10 7  
Since 1 July heating degree days 4034 4203  
Cooling Degree Days 0 8  
Month to date cooling degree days 66 90  
Year to date cooling degree days 244 204  
Since 1 June cooling degree days 66 90  
Growing Degree Days 10 (Base 50)    
Moisture  
Dew Point 48 °F    
Average Humidity 67    
Maximum Humidity 100    
Minimum Humidity 33    
Precipitation  
Precipitation 0.00 in 0.15 in 1.62 in (2017)
Month to date precipitation 3.60 2.14  
Sea Level Pressure  
Sea Level Pressure 30.16 in    
Wind  
Wind Speed 2 mph (SSE)    
Max Wind Speed 10 mph    
Max Gust Speed 17 mph    
Visibility 10 miles    
Events      
T = Trace of Precipitation, MM = Missing Value Source: NWS Daily Summary

Daily Weather History Graph

Daily Weather History Graph

Search for Another Location

Airport or City:

Astronomy

Jun. 14, 2019 Rise Set
Actual Time 6:15 AM EDT 8:57 PM EDT
Civil Twilight 5:45 AM EDT 9:28 PM EDT
Nautical Twilight 5:06 AM EDT 10:06 PM EDT
Astronomical Twilight 4:23 AM EDT 10:50 PM EDT
Moon 6:21 PM EDT (6/14) 4:28 AM EDT (6/14)
Length of Visible Light 15h 43m
Length of Day
14h 41m
Waxing Gibbous, 92% of the Moon is Illuminated
Jun 14
Waxing Gibbous
Jun 17
Full
Jun 25
Last Quarter
Jul 2
New
Jul 9
First Quarter

Hourly Weather History & Observations

Time (EDT) Temp. Dew Point Humidity Pressure Visibility Wind Dir Wind Speed Gust Speed Precip Events Conditions
12:53 AM 53.1 °F 50.0 °F 89% 30.12 in 10.0 mi Calm Calm - N/A   Scattered Clouds
1:53 AM 51.1 °F 50.0 °F 96% 30.13 in 10.0 mi Calm Calm - N/A   Clear
2:53 AM 50.0 °F 48.9 °F 96% 30.13 in 10.0 mi Calm Calm - N/A   Clear
3:53 AM 48.0 °F 48.0 °F 100% 30.14 in 9.0 mi Calm Calm - N/A   Clear
4:53 AM 48.0 °F 46.9 °F 96% 30.16 in 8.0 mi Calm Calm - N/A   Clear
5:53 AM 46.9 °F 46.0 °F 97% 30.17 in 10.0 mi Calm Calm - N/A   Clear
6:53 AM 46.9 °F 46.9 °F 100% 30.19 in 10.0 mi Calm Calm - N/A   Clear
7:53 AM 51.1 °F 48.9 °F 92% 30.22 in 10.0 mi Calm Calm - N/A   Clear
8:53 AM 55.9 °F 51.1 °F 84% 30.22 in 10.0 mi Calm Calm - N/A   Clear
9:53 AM 62.1 °F 51.1 °F 67% 30.23 in 10.0 mi Calm Calm - N/A   Clear
10:53 AM 66.0 °F 44.1 °F 45% 30.23 in 10.0 mi Calm Calm - N/A   Clear
11:53 AM 68.0 °F 44.1 °F 42% 30.22 in 10.0 mi SSW 6.9 mph - N/A   Clear
12:53 PM 70.0 °F 43.0 °F 38% 30.20 in 10.0 mi ESE 6.9 mph - N/A   Clear
1:53 PM 72.0 °F 44.1 °F 37% 30.18 in 10.0 mi Calm Calm - N/A   Clear
2:53 PM 73.0 °F 45.0 °F 37% 30.16 in 10.0 mi Variable 3.5 mph - N/A   Clear
3:53 PM 73.9 °F 46.0 °F 37% 30.14 in 10.0 mi ESE 6.9 mph - N/A   Clear
4:53 PM 75.0 °F 46.9 °F 37% 30.12 in 10.0 mi South 9.2 mph - N/A   Clear
5:53 PM 73.9 °F 43.0 °F 33% 30.11 in 10.0 mi South 5.8 mph - N/A   Clear
6:53 PM 73.9 °F 46.9 °F 38% 30.10 in 10.0 mi SSW 5.8 mph - N/A   Clear
7:53 PM 72.0 °F 52.0 °F 49% 30.09 in 10.0 mi South 3.5 mph - N/A   Clear
8:53 PM 66.9 °F 55.0 °F 66% 30.09 in 10.0 mi Calm Calm - N/A   Clear
9:53 PM 66.0 °F 53.1 °F 63% 30.10 in 10.0 mi Calm Calm - N/A   Clear